User: anonymous   Login
Location: Peebles
(55.6412°N, 3.1714°W)
Time: 23:33:42
(UTC+00:00)
Language:

Cosmos 494 Rocket - Orbit

View from above orbital plane
View from above orbital plane
View from above satellite
View from above satellite

Ground track
Ground track

The orbit data is extracted from the following two-line orbital elements,

1 06061U 72043B   21331.52385179  .00000049  00000-0  23477-4 0  9999
2 06061  74.0582  59.8260 0019128 145.1955 215.0456 14.40641801591931
Epoch (UTC): 27 November 2021 12:34:20
Eccentricity: 0.0019128
inclination: 74.0582°
perigee height: 743 km
apogee height: 770 km
right ascension of ascending node: 59.8260°
argument of perigee: 145.1955°
revolutions per day: 14.40641801
mean anomaly at epoch: 215.0456°
orbit number at epoch: 59193

The dashed part of the orbit path shows where the satellite is in the earth's shadow,  

DLR